Voltar ao catálogo

CZ-3B DEB

LostGTO
NORAD 42462·DEBRIS·🇨🇳 China

Lançado Sep 4, 2010 de Xichang Satellite Launch Center

Loading…

TLE

ObsoletoSource: Space-Track

Época: Mar 12, 2024, 15:33 UTC

1 42462U 10042AD  24072.64834683  .00002376  00000-0  49471-1 0  9996
2 42462  23.5480 183.2982 7353656 213.7339  63.6999  2.02190397 63855

Acompanhe CZ-3B DEB em tempo real com AllMySat

Download on the App Store